Tracking 26911 objects as of 8-Feb-2023
HD Live streaming from Space Station
objects crossing your sky now

XSS 10

Track XSS 10 now!
10-day predictions
XSS 10 is classified as:


NORAD ID: 27664
Int'l Code: 2003-005B
Perigee: 514.1 km
Apogee: 753.7 km
Inclination: 39.7 °
Period: 97.2 minutes
Semi major axis: 7004 km
RCS: 0.183 m2 (medium)
Launch date: January 29, 2003
Source: United States (US)
Launch site: AIR FORCE EASTERN TEST RANGE (AFETR)
Your satellite tracking list
Your tracking list is empty




NASA's NSSDC Master Catalog

Two Line Element Set (TLE):
1 27664U 03005B   23039.17585688  .00002090  00000-0  22256-3 0  9999
2 27664  39.7486  68.9958 0171027  70.2044 291.7089 14.80819958 80562
Source of the keplerian elements: AFSPC